Tracking 34717 objects as of 14-Jul-2026
HD Live streaming from Space Station
objects crossing your sky now

STARLINK-32323

Track STARLINK-32323 now!
10-day predictions
STARLINK-32323 is classified as:


NORAD ID: 61677
Int'l Code: 2024-193S
Perigee: 469.1 km
Apogee: 470.6 km
Inclination: 53.2 °
Period: 93.8 minutes
Semi major axis: 6840 km
RCS: Unknown
Launch date: October 26, 2024
Source: United States (US)
Launch site: AIR FORCE EASTERN TEST RANGE (AFETR)
Your satellite tracking list
Your tracking list is empty




NASA's NSSDC Master Catalog

Two Line Element Set (TLE):
1 61677U 24193S   26194.35774181  .00000251  00000-0  18564-4 0  9990
2 61677  53.1585 224.6925 0001137  87.2819 272.8314 15.34392154 95809
Source of the keplerian elements: AFSPC